Lapse_Rate
6.7 7.3 7.4 7.4 7.4 7.3 7.4 7.5 7.3 7.0 6.6 6.5 6.3 6.2 6.2 6.2 6.2 6.1 6.1 6.1 6.2 6.2 6.1 5.9 6.0 5.9 5.8 5.9 5.9 5.9 6.0 6.0
7.4 7.2 7.3 7.3 7.2 7.3 7.4 7.3 6.8 6.6 6.4 6.2 6.2 6.3 6.4 6.3 6.2 6.1 6.1 6.1 6.1 5.9 6.0 5.9 5.8 5.8 5.8 5.7 5.7 5.9 6.0 6.0
7.2 7.2 7.1 7.0 7.2 7.2 7.1 6.9 6.5 6.3 6.3 6.3 6.4 6.3 6.5 6.4 6.2 6.1 6.3 6.3 6.1 5.9 6.0 5.9 5.9 6.0 6.1 6.1 5.9 5.9 6.1 6.0
7.4 7.3 7.1 7.1 7.0 6.8 6.6 6.4 6.5 6.4 6.2 6.2 6.2 6.3 6.5 6.4 6.3 6.2 6.4 6.4 6.1 6.0 6.1 6.0 6.0 6.1 6.0 6.3 6.3 6.3 6.2 6.1
7.4 7.2 6.9 6.7 6.8 6.9 7.0 6.9 6.8 6.6 6.4 6.4 6.4 6.4 6.4 6.4 6.3 6.1 6.4 6.2 6.0 5.9 6.0 6.1 6.1 5.9 6.1 6.3 6.4 6.5 6.6 6.5
7.0 7.1 7.1 7.1 7.1 7.1 7.0 6.7 6.6 6.4 6.3 6.4 6.5 6.4 6.6 6.6 6.4 6.3 6.2 6.1 6.1 6.0 6.1 6.1 6.0 5.8 5.9 6.1 6.3 6.3 6.4 6.4
7.3 7.3 7.2 7.1 7.0 6.9 6.6 6.5 6.3 6.3 6.4 6.8 6.5 6.6 6.3 6.0 6.0 6.2 6.1 6.1 6.1 6.0 6.1 6.1 5.8 5.6 5.8 5.9 6.0 6.1 6.3 6.4
7.1 7.1 7.3 7.2 6.9 6.8 6.5 6.2 6.1 6.0 6.7 7.1 7.0 6.7 6.3 5.8 5.9 6.0 6.1 6.1 5.9 6.1 6.1 5.8 5.6 5.5 5.7 5.9 5.9 5.9 5.8 5.7
7.0 7.2 7.3 7.2 6.9 6.6 6.4 6.0 6.3 6.3 7.6 7.4 6.5 6.9 6.7 6.3 5.9 5.9 6.0 6.1 6.2 6.1 5.9 5.9 6.0 5.8 5.8 5.8 5.6 5.4 5.5 5.4
7.2 7.1 6.9 6.8 6.4 6.5 5.5 6.2 6.6 6.9 7.0 6.8 6.4 6.6 6.4 6.1 6.0 6.0 6.1 6.3 6.3 6.2 6.2 6.0 5.8 5.8 5.8 5.8 5.6 5.5 5.4 5.3
7.2 7.0 6.7 6.2 6.4 6.3 6.8 6.8 6.6 6.3 6.6 6.5 6.4 6.5 6.3 6.4 6.6 6.4 6.3 6.3 6.3 6.2 6.0 6.0 6.0 6.0 5.8 5.7 5.6 5.7 5.5 5.3
6.9 6.7 6.5 6.4 6.3 6.2 6.0 6.0 5.8 6.3 6.6 6.6 6.6 6.5 6.6 6.6 6.6 6.4 6.4 6.2 6.1 6.0 5.9 5.7 5.6 5.9 5.8 5.5 5.6 5.4 5.4 5.5
6.9 6.9 7.1 6.8 6.4 6.2 5.9 5.8 6.4 6.4 6.1 6.1 6.2 6.2 6.2 6.2 6.2 6.1 6.1 6.0 5.9 5.6 5.3 5.1 5.2 5.3 5.6 5.5 5.6 5.4 4.7 5.3
7.1 7.4 7.1 6.6 6.3 6.2 6.2 6.2 5.7 5.5 5.4 5.5 5.7 6.1 6.2 6.3 6.4 6.4 6.4 6.3 6.0 6.2 5.9 5.7 5.3 5.3 5.7 5.7 5.4 5.3 4.2 4.0
7.2 6.9 6.3 6.1 6.3 6.3 5.9 5.6 5.7 6.0 6.2 6.4 6.7 6.7 6.7 6.6 6.5 6.5 6.4 6.2 5.9 5.5 5.4 5.4 5.3 5.1 5.0 5.0 5.0 4.6 4.4 4.2
6.8 6.5 6.2 6.3 6.2 5.8 5.8 5.9 6.1 6.4 6.6 6.7 6.6 6.5 6.4 6.4 6.4 6.2 5.9 5.6 5.4 5.2 5.2 5.1 5.0 4.7 4.4 4.2 3.8 3.6 3.6 3.2
6.6 6.4 6.3 5.9 5.6 5.6 5.7 5.9 6.0 6.0 6.1 6.2 6.1 6.2 6.3 6.1 6.0 5.6 5.4 5.3 5.2 5.1 4.9 4.7 4.5 4.2 4.0 3.5 3.5 3.6 3.6 3.3
6.3 6.1 6.0 5.7 5.6 5.7 5.7 5.8 5.8 5.8 6.0 6.1 6.2 6.1 5.9 5.7 5.4 5.3 5.2 5.0 4.8 4.4 4.3 3.9 3.4 3.4 3.5 3.6 3.6 3.8 3.9 3.5
6.1 6.0 5.9 5.8 5.7 5.8 5.8 5.8 5.7 5.8 6.2 6.0 5.9 5.8 5.7 5.5 5.3 5.0 4.7 4.4 4.1 4.0 3.6 3.4 3.6 3.8 3.9 3.7 3.6 3.5 4.3 4.8
6.0 5.8 5.8 5.7 5.6 5.7 5.6 5.4 5.6 6.0 5.9 5.7 5.7 5.5 5.3 5.1 4.9 4.7 4.6 4.6 4.4 3.8 3.9 3.7 3.8 3.8 3.8 4.0 4.6 5.0 5.3 5.4
Wind_Speed
16 16 13 12 11 11 10 9 8 8 7 5 7 7 6 6 6 4 5 5 5 6 6 7 8 10 11 13 13 10 11 9
13 14 12 11 12 11 10 8 6 5 5 5 5 5 4 4 2 5 5 5 6 7 9 10 11 12 12 14 14 11 13 11
9 10 9 8 9 9 9 7 4 4 4 3 3 2 1 1 3 3 5 6 7 9 11 11 10 9 3 10 14 13 12 11
7 6 7 8 6 7 6 5 3 2 3 1 1 3 4 6 4 4 5 6 5 5 6 5 5 11 10 7 11 11 10 9
7 9 8 6 6 6 6 5 4 4 3 3 4 5 6 6 5 3 3 2 4 5 5 8 9 9 9 9 10 10 9 9
8 9 8 6 7 7 8 6 5 4 5 3 5 7 10 8 6 4 3 3 4 5 5 7 8 7 6 6 7 9 9 10
9 9 9 8 7 8 6 4 3 2 1 4 5 6 9 14 8 5 3 3 3 5 6 7 8 7 7 7 7 7 8 9
11 11 12 12 11 9 8 8 7 7 2 2 2 5 6 13 10 6 4 4 4 6 8 8 7 8 8 8 9 9 9 10
13 13 14 12 11 10 8 5 2 1 2 5 5 5 8 10 8 6 4 4 4 4 5 6 7 8 8 10 11 9 10 9
14 11 12 9 9 6 8 4 4 2 7 6 2 2 3 8 3 3 5 5 5 5 6 6 6 7 7 8 10 12 9 10
15 13 9 4 4 10 7 8 6 5 7 6 4 6 3 1 2 3 4 5 5 6 5 5 6 7 8 9 9 10 14 15
14 10 9 4 3 7 7 7 7 6 6 6 5 5 4 2 3 5 5 5 4 5 6 7 7 7 10 11 10 10 14 12
15 11 7 4 4 5 5 3 4 4 6 6 5 5 5 4 4 4 6 6 7 7 8 10 8 7 10 10 10 12 6 8
11 10 8 6 5 4 2 1 3 5 5 4 4 4 5 5 7 8 9 8 9 7 7 7 7 4 8 11 10 10 9 7
10 10 9 5 3 4 4 5 4 2 2 3 5 7 9 10 9 10 10 10 8 6 5 5 6 6 6 7 9 11 12 11
12 11 8 5 3 6 7 5 4 4 3 4 7 8 10 12 13 12 11 10 8 5 4 4 4 7 7 8 8 10 11 12
10 11 10 9 9 8 6 6 4 4 5 7 8 11 13 15 15 14 13 10 6 4 4 4 6 6 9 8 9 8 9 10
10 11 11 10 11 11 9 8 6 6 7 8 8 9 13 16 17 15 14 9 5 3 2 4 7 7 6 6 6 8 8 9
11 12 12 10 10 10 9 8 7 7 8 7 10 9 9 11 16 13 9 5 3 2 3 5 7 6 6 6 7 7 8 8
12 12 11 10 10 10 8 6 5 5 6 7 7 8 9 15 14 9 2 3 1 5 10 5 5 6 8 8 8 8 9 8
Wind_Direction
150 155 143 131 121 112 102 95 93 94 96 92 95 96 100 89 82 69 65 51 32 13 6 357 1 5 1 0 358 346 341 7
148 154 149 148 133 112 93 88 93 98 98 99 102 122 115 108 146 60 23 11 359 348 340 339 341 339 344 350 338 291 354 334
136 132 139 126 116 105 118 116 116 150 152 121 177 103 93 188 52 3 344 343 337 339 337 330 324 285 327 346 307 354 335 348
121 123 115 99 102 112 117 117 111 69 92 78 104 19 356 322 297 312 304 325 309 336 347 318 304 348 347 320 351 344 336 337
111 108 111 149 124 131 117 118 113 110 85 19 36 349 346 308 297 272 291 355 323 333 2 18 4 343 343 338 340 330 345 338
149 140 128 120 131 116 122 115 115 102 67 30 28 14 355 327 315 307 277 341 336 340 6 12 355 349 348 341 344 336 341 325
118 122 121 120 119 115 107 92 69 47 168 131 125 70 15 333 310 285 298 298 327 329 343 351 342 328 328 325 327 326 328 323
129 124 119 108 91 82 78 58 38 8 359 193 157 96 97 271 265 263 272 299 327 327 347 341 330 323 319 320 313 316 320 316
132 121 112 100 88 73 51 37 21 276 178 185 189 183 176 245 263 269 298 350 343 335 331 322 317 314 309 304 301 305 313 305
140 135 127 115 101 103 94 109 99 108 96 75 108 135 207 240 281 8 14 5 343 341 339 322 320 317 314 305 304 304 306 287
147 144 142 140 126 97 111 110 129 118 82 91 73 66 65 33 41 36 0 352 349 335 325 328 315 302 304 305 300 298 298 296
156 163 166 147 92 136 129 123 84 78 81 71 62 68 47 14 50 21 338 324 322 337 324 321 302 307 306 299 297 300 305 298
173 167 163 181 154 139 150 145 107 98 84 60 55 49 50 22 5 349 329 321 326 309 308 307 308 332 305 315 299 291 283 289
169 168 169 158 147 113 25 124 93 98 96 80 63 48 22 342 338 328 327 313 310 301 313 314 307 344 321 313 313 306 295 350
164 150 136 101 71 137 129 125 131 149 55 34 42 5 346 334 323 319 316 308 306 305 300 313 316 312 341 323 323 320 321 302
136 132 117 90 110 88 68 52 50 38 10 9 335 333 325 321 314 306 305 303 296 283 294 312 312 318 316 319 306 305 304 303
129 123 113 107 97 91 90 74 61 30 0 335 322 317 313 309 304 297 293 288 275 279 273 315 313 325 323 317 311 302 297 298
135 128 118 107 97 87 81 68 42 16 360 339 336 326 320 315 313 303 292 278 242 231 264 323 324 320 313 312 306 309 306 307
136 126 117 107 96 89 80 71 46 18 359 348 333 330 326 321 318 299 277 251 230 253 326 288 290 302 311 311 306 301 303 302
136 130 124 114 104 95 80 55 43 21 4 347 331 328 324 323 314 298 232 218 155 322 273 274 299 292 302 304 296 296 302 300